When you browse on this site, cookies collect data to enhance your experience and personalize the content and advertising you see.
Visit our Privacy Policy to learn more. By continuing to use the site, you agree to this use of cookies and data.
  • In Hungary
  • List of Countries
  • For 7 days
  • Water Temperature
  • Satellite Maps
  • Weather Map
  • News
  • Weather Widgets
  • user-avatar
    Login

    Hourly Weather Kvashyne

    Today, 20 February, Wednesday

    Time Temperature Precipitation Wind Pressure Humidity
    00:00 -4°C° 0 mm 2 mps 757 mmHg 69%
    01:00 -4°C° 0 mm 2 mps 756 mmHg 68%
    02:00 -4°C° 0 mm 2 mps 756 mmHg 67%
    03:00 -4°C° 0 mm 2 mps 756 mmHg 66%
    04:00 -4°C° 0 mm 2 mps 755 mmHg 66%
    05:00 -4°C° 0 mm 2 mps 755 mmHg 66%
    06:00 -4°C° 0 mm 2 mps 754 mmHg 67%
    07:00 -3°C° 0 mm 2 mps 754 mmHg 66%
    08:00 -4°C° 0 mm 3 mps 754 mmHg 64%
    09:00 -2°C° 0 mm 3 mps 753 mmHg 63%
    10:00 -1°C° 0 mm 3 mps 753 mmHg 62%
    11:00 -1°C° 0 mm 4 mps 753 mmHg 60%
    12:00 0°C° 0 mm 4 mps 752 mmHg 58%
    13:00 +1°C° 0 mm 5 mps 752 mmHg 62%
    14:00 +1°C° 0 mm 5 mps 752 mmHg 66%
    15:00 +1°C° 0 mm 5 mps 751 mmHg 70%
    16:00 +1°C° 0 mm 5 mps 751 mmHg 74%
    17:00 0°C° 0 mm 4 mps 750 mmHg 78%
    18:00 -1°C° 0 mm 4 mps 750 mmHg 81%
    19:00 -2°C° 0 mm 4 mps 750 mmHg 81%
    20:00 -2°C° 0 mm 4 mps 750 mmHg 81%
    21:00 -1°C° 0 mm 3 mps 750 mmHg 81%
    22:00 -2°C° 0 mm 4 mps 749 mmHg 80%
    23:00 -2°C° 0 mm 4 mps 749 mmHg 79%

    Tomorrow, 21 February, Thursday

    Time Temperature Precipitation Wind Pressure Humidity
    00:00 -1°C° 0 mm 4 mps 749 mmHg 78%
    01:00 -1°C° 0 mm 4 mps 748 mmHg 81%
    02:00 -1°C° 0 mm 4 mps 748 mmHg 83%
    03:00 -1°C° 0 mm 4 mps 748 mmHg 86%
    04:00 0°C° 0 mm 4 mps 748 mmHg 89%
    05:00 0°C° 0 mm 4 mps 747 mmHg 91%
    06:00 0°C° 0 mm 4 mps 747 mmHg 94%
    07:00 0°C° 0.1 mm 4 mps 747 mmHg 95%
    08:00 0°C° 0.1 mm 4 mps 747 mmHg 95%
    09:00 0°C° 0.1 mm 4 mps 747 mmHg 96%
    10:00 +1°C° 0 mm 5 mps 746 mmHg 86%
    11:00 +2°C° 0 mm 5 mps 746 mmHg 77%
    12:00 +3°C° 0 mm 6 mps 746 mmHg 67%
    13:00 +3°C° 0.1 mm 7 mps 746 mmHg 68%
    14:00 +3°C° 0.1 mm 7 mps 746 mmHg 68%
    15:00 +2°C° 0.1 mm 7 mps 746 mmHg 69%
    16:00 0°C° 0.2 mm 7 mps 746 mmHg 70%
    17:00 -1°C° 0.2 mm 7 mps 746 mmHg 71%
    18:00 -2°C° 0.2 mm 7 mps 746 mmHg 71%
    19:00 -3°C° 0 mm 7 mps 747 mmHg 71%
    20:00 -4°C° 0 mm 6 mps 747 mmHg 70%
    21:00 -5°C° 0 mm 5 mps 748 mmHg 69%
    22:00 -6°C° 0 mm 5 mps 748 mmHg 67%
    23:00 -6°C° 0 mm 5 mps 749 mmHg 66%

    Day after tomorrow, 22 February, Friday

    Time Temperature Precipitation Wind Pressure Humidity
    00:00 -6°C° 0 mm 5 mps 749 mmHg 64%
    01:00 -6°C° 0 mm 5 mps 749 mmHg 64%
    02:00 -7°C° 0 mm 5 mps 749 mmHg 64%
    03:00 -7°C° 0 mm 5 mps 749 mmHg 64%
    04:00 -7°C° 0 mm 5 mps 749 mmHg 65%
    05:00 -7°C° 0 mm 5 mps 749 mmHg 65%
    06:00 -7°C° 0 mm 5 mps 749 mmHg 66%
    07:00 -7°C° 0 mm 5 mps 749 mmHg 65%
    08:00 -6°C° 0 mm 5 mps 750 mmHg 65%
    09:00 -6°C° 0 mm 5 mps 750 mmHg 64%
    10:00 -5°C° 0 mm 5 mps 750 mmHg 62%
    11:00 -5°C° 0 mm 5 mps 749 mmHg 60%
    12:00 -4°C° 0 mm 5 mps 749 mmHg 58%
    13:00 -4°C° 0 mm 5 mps 749 mmHg 59%
    14:00 -3°C° 0 mm 4 mps 749 mmHg 61%
    15:00 -3°C° 0 mm 4 mps 749 mmHg 62%
    16:00 -4°C° 0.2 mm 4 mps 749 mmHg 69%
    17:00 -5°C° 0.2 mm 4 mps 748 mmHg 77%
    18:00 -5°C° 0.2 mm 4 mps 748 mmHg 84%
    19:00 -7°C° 0.4 mm 5 mps 749 mmHg 85%
    20:00 -9°C° 0.4 mm 6 mps 749 mmHg 85%
    21:00 -11°C° 0.4 mm 7 mps 749 mmHg 86%
    22:00 -12°C° 0.5 mm 7 mps 750 mmHg 86%
    23:00 -13°C° 0.5 mm 7 mps 750 mmHg 86%

    23 February, Saturday

    Time Temperature Precipitation Wind Pressure Humidity
    00:00 -13°C° 0.5 mm 7 mps 750 mmHg 86%
    01:00 -14°C° 0.3 mm 7 mps 750 mmHg 85%
    02:00 -14°C° 0.3 mm 7 mps 750 mmHg 84%
    03:00 -14°C° 0.3 mm 7 mps 751 mmHg 83%
    04:00 -14°C° 0.2 mm 7 mps 751 mmHg 83%
    05:00 -14°C° 0.2 mm 7 mps 751 mmHg 83%
    06:00 -14°C° 0.2 mm 7 mps 751 mmHg 83%
    07:00 -14°C° 0.1 mm 7 mps 752 mmHg 83%
    08:00 -14°C° 0.1 mm 7 mps 752 mmHg 82%
    09:00 -14°C° 0.1 mm 7 mps 753 mmHg 82%
    10:00 -14°C° 0.1 mm 7 mps 753 mmHg 82%
    11:00 -13°C° 0.1 mm 7 mps 753 mmHg 81%
    12:00 -13°C° 0.1 mm 7 mps 754 mmHg 80%
    13:00 -12°C° 0 mm 7 mps 754 mmHg 80%
    14:00 -12°C° 0 mm 7 mps 754 mmHg 79%
    15:00 -12°C° 0 mm 7 mps 754 mmHg 79%
    16:00 -11°C° 0 mm 6 mps 755 mmHg 80%
    17:00 -12°C° 0 mm 6 mps 755 mmHg 81%
    18:00 -12°C° 0 mm 6 mps 755 mmHg 82%
    19:00 -12°C° 0 mm 6 mps 756 mmHg 83%
    20:00 -14°C° 0 mm 6 mps 756 mmHg 84%
    21:00 -14°C° 0 mm 6 mps 756 mmHg 84%
    22:00 -14°C° 0 mm 6 mps 757 mmHg 85%
    23:00 -13°C° 0 mm 5 mps 757 mmHg 85%

    24 February, Sunday

    Time Temperature Precipitation Wind Pressure Humidity
    00:00 -13°C° 0 mm 5 mps 757 mmHg 86%
    01:00 -13°C° 0 mm 5 mps 757 mmHg 87%
    02:00 -14°C° 0 mm 5 mps 757 mmHg 87%
    03:00 -14°C° 0 mm 5 mps 757 mmHg 88%
    04:00 -14°C° 0 mm 5 mps 757 mmHg 88%
    05:00 -14°C° 0 mm 5 mps 757 mmHg 88%
    06:00 -14°C° 0 mm 5 mps 757 mmHg 88%
    07:00 -14°C° 0 mm 5 mps 757 mmHg 88%
    08:00 -14°C° 0 mm 5 mps 757 mmHg 87%
    09:00 -13°C° 0 mm 5 mps 757 mmHg 87%
    10:00 -13°C° 0.1 mm 5 mps 757 mmHg 87%
    11:00 -12°C° 0.1 mm 5 mps 757 mmHg 87%
    12:00 -11°C° 0.1 mm 5 mps 757 mmHg 87%
    13:00 -10°C° 0.1 mm 5 mps 757 mmHg 87%
    14:00 -10°C° 0.1 mm 5 mps 757 mmHg 87%
    15:00 -8°C° 0.1 mm 5 mps 757 mmHg 86%
    16:00 -10°C° 0 mm 5 mps 757 mmHg 87%
    17:00 -10°C° 0 mm 5 mps 757 mmHg 88%
    18:00 -10°C° 0 mm 5 mps 757 mmHg 88%
    19:00 -10°C° 0 mm 5 mps 757 mmHg 89%
    20:00 -11°C° 0 mm 5 mps 757 mmHg 89%
    21:00 -11°C° 0 mm 5 mps 757 mmHg 90%
    22:00 -11°C° 0.1 mm 5 mps 757 mmHg 90%
    23:00 -11°C° 0.1 mm 5 mps 757 mmHg 90%

    25 February, Monday

    Time Temperature Precipitation Wind Pressure Humidity
    00:00 -11°C° 0.1 mm 5 mps 757 mmHg 90%
    01:00 -11°C° 0 mm 5 mps 757 mmHg 90%
    02:00 -11°C° 0 mm 5 mps 757 mmHg 90%
    03:00 -11°C° 0 mm 5 mps 757 mmHg 91%
    04:00 -11°C° 0 mm 5 mps 757 mmHg 91%
    05:00 -11°C° 0 mm 5 mps 757 mmHg 91%
    06:00 -11°C° 0 mm 5 mps 756 mmHg 91%
    07:00 -11°C° 0 mm 5 mps 757 mmHg 91%
    08:00 -11°C° 0 mm 5 mps 757 mmHg 91%
    09:00 -10°C° 0 mm 4 mps 757 mmHg 91%
    10:00 -9°C° 0 mm 4 mps 757 mmHg 90%
    11:00 -8°C° 0 mm 4 mps 756 mmHg 90%
    12:00 -7°C° 0 mm 4 mps 756 mmHg 89%
    13:00 -5°C° 0 mm 4 mps 756 mmHg 89%
    14:00 -5°C° 0 mm 4 mps 755 mmHg 89%
    15:00 -4°C° 0 mm 4 mps 755 mmHg 89%
    16:00 -4°C° 0 mm 4 mps 754 mmHg 90%
    17:00 -5°C° 0 mm 3 mps 754 mmHg 90%
    18:00 -6°C° 0 mm 3 mps 754 mmHg 91%
    19:00 -6°C° 0 mm 3 mps 753 mmHg 91%
    20:00 -6°C° 0 mm 2 mps 753 mmHg 91%
    21:00 -7°C° 0 mm 2 mps 753 mmHg 90%
    22:00 -7°C° 0 mm 2 mps 752 mmHg 90%
    23:00 -7°C° 0 mm 2 mps 751 mmHg 90%
    Show more